Regional Weather Roundup
Issued by NWS

Home | Current Version | Previous Version | Text Only | Print | Product List | Glossary Off
Versions: 1 2 3 4 5 6 7 8 9 10 11 12 13 14 15 16 17 18 19 20 21 22 23 24 25 26 27 28 29 30 31 32 33 34 35 36 37 38 39 40 41 42 43 44 45 46 47 48 49 50

000
ASUS43 KMPX 270001
RWRMN
WEATHER ROUNDUP FOR MINNESOTA
NATIONAL WEATHER SERVICE TWIN CITIES/CHANHASSEN MN
700 PM CDT WED JUL 26 2017


NOTE: "FAIR" INDICATES FEW OR NO CLOUDS BELOW 12,000 FEET WITH NO
SIGNIFICANT WEATHER AND/OR OBSTRUCTIONS TO VISIBILITY. N/A MEANS
CURRENT SKY AND/OR WEATHER CONDITIONS ARE NOT AVAILABLE.

MNZ060>063-068>070-270100-
   Twin Cities Metro

CITY           SKY/WX    TMP DP  RH WIND       PRES   REMARKS
TWIN CITIES    MOSUNNY   82  60  47 NW10      29.97S
6HR MIN TEMP:  78; 6HR MAX TEMP:  84;

ST PAUL        SUNNY     81  62  52 NW14      29.97S
CRYSTAL        SUNNY     82  58  43 N8        29.97S
BLAINE         MOSUNNY   82  61  47 NW9       29.98F
LAKEVILLE      SUNNY     79  63  57 NW5       29.98S
EDEN PRAIRIE   SUNNY     82  61  48 N8        29.97S
6HR MIN TEMP:  78; 6HR MAX TEMP:  84;

SOUTH ST PAUL  SUNNY     82  58  44 N9        29.97S
LAKE ELMO      FAIR      81  61  50 NW8       29.99S
$$
MNZ001>005-007-008-013>017-022>024-027-028-270100-
   Northwest Minnesota

CITY           SKY/WX    TMP DP  RH WIND       PRES   REMARKS
BEMIDJI        SUNNY     77  58  52 N9        30.04S
HALLOCK        SUNNY     79  59  50 NW8       30.04S
ROSEAU         SUNNY     79  63  57 N7        30.03S
WARROAD        SUNNY     79  61  53 NW8       30.03S
CROOKSTON      SUNNY     79  61  53 N7        30.06S
FOSSTON        PTSUNNY   79  59  50 NW12      30.06S
DETROIT LAKES  SUNNY     77  61  57 N8        30.07S
MOORHEAD       MOSUNNY   79  61  53 N12       30.06R
PARK RAPIDS    SUNNY     80  58  46 NW10      30.04S
MAHNOMEN       FAIR      78  60  53 N10       30.05S
$$
MNZ006-009>011-018-025>026-270100-
   North Central Minnesota

CITY           SKY/WX    TMP DP  RH WIND       PRES   REMARKS
BAUDETTE       SUNNY     79  59  50 NW7       30.02R
FLAG ISLAND    SUNNY     79  55  44 N10       30.01R
INTL FALLS     PTSUNNY   78  57  48 N10       30.00R
6HR MIN TEMP:  74; 6HR MAX TEMP:  81;

WASKISH        MOSUNNY   75  61  60 CALM      30.03R
BIG FORK       SUNNY     77  55  47 NW3       30.02S
LONGVILLE      SUNNY     79  57  47 CALM      30.03S
GRAND RAPIDS   MOSUNNY   77  60  55 NW9       30.03S
CRANE LAKE     SUNNY     75  55  50 NW5       30.01R
ORR            SUNNY     77  55  47 W5        29.99R
COOK             N/A     75  61  60 NW3       30.02R
WALKER         MOCLDY    74  59  59 N6        30.04R
$$
MNZ012-019>021-037-270100-
   Northeast Minnesota

CITY           SKY/WX    TMP DP  RH WIND       PRES   REMARKS
DULUTH         MOSUNNY   79  61  53 N5        29.99R
6HR MIN TEMP:  75; 6HR MAX TEMP:  81;

ELY            MOSUNNY   75  55  50 N6        30.00R
HIBBING        MOSUNNY   75  57  53 N10       30.00R
EVELETH        MOSUNNY   78  46  32 NW7       30.02R
DULUTH HARBOR  MOSUNNY   82  63  51 N7        29.96S
TWO HARBORS    SUNNY     81  64  57 CALM      29.96R
SILVER BAY     CLOUDY    81  61  50 CALM      29.95R
GRAND MARAIS     N/A     76  61  59 VRB3      29.93R
G MARAIS ARPRT CLOUDY    72  55  56 NW5       30.00S
$$
MNZ029>031-032-039>041-046>048-054>057-064-270100-
   West Central Minnesota

CITY           SKY/WX    TMP DP  RH WIND       PRES   REMARKS
FERGUS FALLS   MOSUNNY   79  63  57 N8        30.04R
WHEATON        SUNNY     79  61  53 N7        30.06S
MORRIS         SUNNY     81  61  50 N7        30.04S
ALEXANDRIA     SUNNY     78  61  55 NW9       30.06S
ELBOW LAKE     FAIR      78  63  59 NW10      30.05S
WADENA         MOSUNNY   79  61  53 NW8       30.04S
GLENWOOD       SUNNY     77  61  57 NW8       30.05S
APPLETON       SUNNY     81  61  50 N9        30.03S
BENSON         SUNNY     81  61  50 N8        30.05S
ORTONVILLE     SUNNY     81  61  50 MISG      30.05S
MADISON        SUNNY     82  61  47 N13       30.04S
WILLMAR        FAIR      81  64  57 N12       30.04S
$$
MNZ033>034-036-042>043-049>051-058-059-270100-
   Central Minnesota

CITY           SKY/WX    TMP DP  RH WIND       PRES   REMARKS
ST CLOUD       SUNNY     80  62  54 N9        30.00S
6HR MIN TEMP:  78; 6HR MAX TEMP:  83;

SAUK CENTRE    FAIR      78  60  53 NW7       30.04S
PAYNESVILLE    SUNNY     80  62  53 NW10      30.03S
AITKIN         SUNNY     77  59  53 NW6       30.00S
PINE RIVER     SUNNY     79  61  53 N9        30.06R
BRAINERD       CLOUDY    79  60  52 N9        30.02R
STAPLES        PTSUNNY   81  57  44 N8        30.03S
LONG PRAIRIE   FAIR      77  61  57 W8        30.04S
LITTLE FALLS   SUNNY     79  57  47 NW6       30.02S
LITCHFIELD     SUNNY     82  63  51 NW9       30.02R
BUFFALO        SUNNY     82  58  45 NW7       30.00F
MAPLE LAKE     MOSUNNY   82  64  52 N3        30.01S
HUTCHINSON     MOSUNNY   81  65  58 NW5       30.02S
$$
MNZ037-044-045-052-053-270100-
   East Central Minnesota

CITY           SKY/WX    TMP DP  RH WIND       PRES   REMARKS
PRINCETON      SUNNY     82  63  51 NW7       30.00S
MORA           SUNNY     77  59  53 NW7       30.02R
CAMBRIDGE      SUNNY     82  63  51 N5        29.98S
RUSH CITY      SUNNY     79  60  51 NW6       29.99F
MOOSE LAKE     SUNNY     79  61  53 NW6       29.98S
HINCKLEY       FAIR      79  63  57 NW6       29.99S
CLOQUET        MOSUNNY   79  57  47 NW7       30.00R
MCGREGOR       SUNNY     79  59  50 NW7       30.01S
$$
MNZ071>073-080-081-089-090-097-098-270100-
   Southwest Minnesota

CITY           SKY/WX    TMP DP  RH WIND       PRES   REMARKS
MONTEVIDEO     SUNNY     81  63  54 NE10      30.04S
GRANITE FALLS  SUNNY     82  63  52 NW8       30.05R
CANBY          SUNNY     83  57  42 N7        30.06S
MARSHALL       SUNNY     78  64  61 N8        30.05R
REDWOOD FALLS  SUNNY     81  61  50 NW10      30.02S
OLIVIA         SUNNY     79  63  57 NW8       30.02S
PIPESTONE      SUNNY     79  59  50 NE9       30.07R
WINDOM         SUNNY     79  63  57 N10       30.04R
WORTHINGTON    SUNNY     78  62  57 N9        30.05R
JACKSON        SUNNY     77  64  65 CALM      30.03S
TRACY          SUNNY     78  65  63 N10       30.05R
SLAYTON        HVY RAIN  76  60  57 N10       30.06S
$$
MNZ065>067-074>077-082>085-091>093-270100-
   South Central Minnesota

CITY           SKY/WX    TMP DP  RH WIND       PRES   REMARKS
MANKATO        SUNNY     79  64  60 N10       30.00S
NEW ULM        SUNNY     79  61  53 N8        30.01S
ST JAMES       SUNNY     79  63  57 N9        30.02R
FAIRMONT       MOSUNNY   79  68  69 N13       30.00S
GLENCOE        SUNNY     80  67  63 NW7       30.00S
FARIBAULT      SUNNY     79  66  65 NW6       29.99S
OWATONNA       PTSUNNY   81  70  69 N10       29.99R
WASECA         SUNNY     77  64  65 N7        30.01R
ALBERT LEA     SUNNY     81  72  74 NW7       29.99R
$$
MNZ078>079-086>088-094>096-270100-
   Southeast Minnesota

CITY           SKY/WX    TMP DP  RH WIND       PRES   REMARKS
ROCHESTER      SUNNY     77  69  76 NW8       29.98F
6HR MIN TEMP:  74; 6HR MAX TEMP:  80;

RED WING       SUNNY     81  64  57 N3        29.95S
STANTON        SUNNY     81  65  58 NW5       29.97R
DODGE CENTER   MOSUNNY   77  70  78 N8        29.99R
WINONA         CLOUDY    79  68  69 W3        29.96R
AUSTIN         SUNNY     79  70  73 N5        29.98S
PRESTON        CLOUDY    77  69  76 N8        29.99R
$$
ABBREVIATIONS USED IN REMARKS
   TC - TEMPERATURES IN CELSIUS
  WCI - WIND CHILL INDEX
   HX - HEAT INDEX
  VSB - VISIBILITY
$$



USA.gov is the U.S. government's official web portal to all federal, state and local government web resources and services.